Location: Fontenoy
(49.4072°N, 3.2008°E)
Time: 07:05:56
(UTC+00:00)

Landsat 5 - Pass Details

Date: 15 May 2026
Orbit: 505 x 601 km, 98.1° (Epoch: 5 June)

Event Time Altitude Azimuth Distance (km) Brightness Sun altitude
Rises 23:41:53 0° 20° (NNE) 2,798 8.1 -21.5°
Reaches altitude 10° 23:44:13 10° 30° (NNE) 1,878 6.9 -21.5°
Maximum altitude 23:47:58 36° 97° (E) 898 4.3 -21.5°
Enters shadow 23:48:11 36° 105° (ESE) 901 4.2 -21.5°
